Stations météo

Publicité
Kielder Castle, Grande-Bretagne (99186): Température de l'air & dewpoint: 10.01.2019 16:00:00 - 16.01.2019 16:00:00 (GMT)Kielder Castle, Grande-Bretagne (99186): Température de l'air -20cm & Température de l'air -100cm: 10.01.2019 16:00:00 - 16.01.2019 16:00:00 (GMT)Kielder Castle, Grande-Bretagne (99186): Quantités de précipitations: 10.01.2019 16:00:00 - 16.01.2019 16:00:00 (GMT)
Date & Time tt [°C] td [°C] tt -20cm [°C] tt -100cm [°C] rr [mm]
16.01.2019 16:00:00 - - - - -
16.01.2019 15:00:00 4,3 1,6 - - 0,0
16.01.2019 14:00:00 4,0 1,5 - - 0,0
16.01.2019 13:00:00 4,8 2,1 - - 0,0
16.01.2019 12:00:00 4,4 2,1 - - 0,0
16.01.2019 11:00:00 4,2 2,8 - - 0,6
16.01.2019 10:00:00 5,1 3,6 - - 0,0
16.01.2019 09:00:00 4,8 3,4 5,4 5,9 0,2
16.01.2019 08:00:00 5,4 4,3 - - 0,2
16.01.2019 07:00:00 6,0 4,6 - - 0,4
16.01.2019 06:00:00 7,2 6,6 - - 0,8
16.01.2019 05:00:00 7,2 6,2 - - 0,2
16.01.2019 04:00:00 7,5 5,9 - - 0,2
16.01.2019 03:00:00 7,6 6,4 - - 0,0
16.01.2019 02:00:00 7,5 6,4 - - 0,0
16.01.2019 01:00:00 7,5 6,6 - - 0,2
16.01.2019 00:00:00 7,5 6,5 - - 0,6
15.01.2019 23:00:00 7,3 6,6 - - 0,2
15.01.2019 22:00:00 7,1 6,5 - - 0,4
15.01.2019 21:00:00 7,2 6,5 - - 0,4
15.01.2019 20:00:00 6,8 6,3 - - 0,4
15.01.2019 19:00:00 6,7 6,1 - - 0,4
15.01.2019 18:00:00 6,6 6,0 - - 0,4
15.01.2019 17:00:00 6,7 5,6 - - 0,0
15.01.2019 16:00:00 6,8 5,2 - - 0,0
15.01.2019 15:00:00 7,3 5,4 - - 0,0
15.01.2019 14:00:00 7,6 5,6 - - 0,0
15.01.2019 13:00:00 7,8 5,6 - - 0,0
15.01.2019 12:00:00 7,7 5,8 - - 0,0
15.01.2019 11:00:00 7,3 5,8 - - 0,0
15.01.2019 10:00:00 7,3 5,9 - - 0,0
15.01.2019 09:00:00 7,2 6,0 5,0 5,9 0,0
15.01.2019 08:00:00 7,1 6,1 - - 0,0
15.01.2019 07:00:00 7,2 6,2 - - 0,0
15.01.2019 06:00:00 6,8 6,0 - - 0,0
15.01.2019 05:00:00 6,8 5,8 - - 0,0
15.01.2019 04:00:00 6,8 5,6 - - 0,0
15.01.2019 03:00:00 6,9 5,6 - - 0,0
15.01.2019 02:00:00 6,9 5,8 - - 0,0
15.01.2019 01:00:00 6,6 5,9 - - 0,0
15.01.2019 00:00:00 6,1 5,6 - - 0,0
14.01.2019 23:00:00 5,8 5,0 - - 0,0
14.01.2019 22:00:00 5,5 4,4 - - 0,0
14.01.2019 21:00:00 5,3 4,2 - - 0,0
14.01.2019 20:00:00 5,1 4,1 - - 0,0
14.01.2019 19:00:00 5,3 3,5 - - 0,0
14.01.2019 18:00:00 5,1 3,3 - - 0,0
14.01.2019 17:00:00 4,7 3,0 - - 0,0
14.01.2019 16:00:00 5,2 3,1 - - 0,0
14.01.2019 15:00:00 6,0 3,1 - - 0,0
14.01.2019 14:00:00 5,2 3,2 - - 0,0
14.01.2019 13:00:00 5,1 3,7 - - 0,0
14.01.2019 12:00:00 4,6 3,6 - - 0,0
14.01.2019 11:00:00 3,7 3,6 - - 0,2
14.01.2019 10:00:00 2,8 2,6 - - 0,0
14.01.2019 09:00:00 2,8 2,6 5,0 5,7 0,0
14.01.2019 08:00:00 3,0 2,8 - - 0,0
14.01.2019 07:00:00 3,0 2,7 - - 0,2
14.01.2019 06:00:00 3,1 2,5 - - 0,2
14.01.2019 05:00:00 4,1 2,2 - - 0,0
14.01.2019 04:00:00 4,0 1,6 - - 0,0
14.01.2019 03:00:00 4,7 1,7 - - 0,0
14.01.2019 02:00:00 4,4 2,4 - - 0,0
14.01.2019 01:00:00 3,7 1,4 - - 0,0
14.01.2019 00:00:00 4,6 1,7 - - 0,0
13.01.2019 23:00:00 5,8 1,9 - - 0,0
13.01.2019 22:00:00 5,9 1,9 - - 0,0
13.01.2019 21:00:00 6,0 1,8 - - 0,0
13.01.2019 20:00:00 5,8 1,4 - - 0,0
13.01.2019 19:00:00 6,3 1,9 - - 0,0
13.01.2019 18:00:00 6,3 1,6 - - 0,0
13.01.2019 17:00:00 6,7 1,9 - - 0,0
13.01.2019 16:00:00 6,9 2,3 - - 0,0
13.01.2019 15:00:00 7,4 2,4 - - 0,0
13.01.2019 14:00:00 8,0 2,9 - - 0,0
13.01.2019 13:00:00 8,6 1,5 - - 0,0
13.01.2019 12:00:00 8,9 4,1 - - 0,0
13.01.2019 11:00:00 9,4 4,3 - - 0,2
13.01.2019 10:00:00 9,2 4,8 - - 0,0
13.01.2019 09:00:00 9,6 6,0 5,2 5,7 0,0
13.01.2019 08:00:00 8,9 7,8 - - 0,0
13.01.2019 07:00:00 8,9 7,6 - - 0,0
13.01.2019 06:00:00 8,1 7,4 - - 0,2
13.01.2019 05:00:00 8,3 7,8 - - 0,2
13.01.2019 04:00:00 8,0 7,6 - - 0,6
13.01.2019 03:00:00 7,6 7,1 - - 0,2
13.01.2019 02:00:00 8,3 7,3 - - 0,0
13.01.2019 01:00:00 8,5 7,7 - - 0,2
13.01.2019 00:00:00 8,9 7,5 - - 0,0
12.01.2019 23:00:00 9,0 7,7 - - 0,0
12.01.2019 22:00:00 9,2 7,7 - - 0,0
12.01.2019 21:00:00 9,3 8,1 - - 0,0
12.01.2019 20:00:00 9,5 8,0 - - 0,0
12.01.2019 19:00:00 9,4 7,8 - - 0,0
12.01.2019 18:00:00 9,3 7,7 - - 0,0
12.01.2019 17:00:00 8,3 7,6 - - 0,0
12.01.2019 16:00:00 7,1 6,3 - - 0,0
12.01.2019 15:00:00 7,2 6,1 - - 0,0
12.01.2019 14:00:00 7,5 5,3 - - 0,0
12.01.2019 13:00:00 7,8 4,6 - - 0,0
12.01.2019 12:00:00 7,3 4,9 - - 0,0
12.01.2019 11:00:00 7,0 5,1 - - 0,0
12.01.2019 10:00:00 6,7 4,7 - - 0,0
12.01.2019 09:00:00 6,8 4,2 4,7 5,7 0,0
12.01.2019 08:00:00 6,1 4,9 - - 0,0
12.01.2019 07:00:00 6,6 4,3 - - 0,0
12.01.2019 06:00:00 6,6 4,9 - - 0,0
12.01.2019 05:00:00 6,4 5,7 - - 0,2
12.01.2019 04:00:00 7,0 5,6 - - 0,2
12.01.2019 03:00:00 7,4 7,0 - - 0,8
12.01.2019 02:00:00 6,9 6,6 - - 0,4
12.01.2019 01:00:00 6,7 6,3 - - 0,0
12.01.2019 00:00:00 6,6 5,7 - - 0,2
11.01.2019 23:00:00 6,8 5,2 - - 0,0
11.01.2019 22:00:00 6,9 5,2 - - 0,0
11.01.2019 21:00:00 6,6 5,5 - - 0,0
11.01.2019 20:00:00 6,7 5,6 - - 0,0
11.01.2019 19:00:00 6,7 5,7 - - 0,0
11.01.2019 18:00:00 6,7 5,7 - - 0,0
11.01.2019 17:00:00 6,4 5,0 - - 0,0
11.01.2019 16:00:00 6,5 4,1 - - 0,0
11.01.2019 15:00:00 6,8 4,1 - - 0,0
11.01.2019 14:00:00 7,0 4,0 - - 0,0
11.01.2019 13:00:00 6,8 3,2 - - 0,0
11.01.2019 12:00:00 6,6 3,8 - - 0,0
11.01.2019 11:00:00 5,5 4,1 - - 0,0
11.01.2019 10:00:00 5,0 4,1 - - 0,0
11.01.2019 09:00:00 5,0 3,8 4,2 5,9 0,0
11.01.2019 08:00:00 4,0 3,7 - - 0,0
11.01.2019 07:00:00 4,0 3,6 - - 0,0
11.01.2019 06:00:00 4,2 3,8 - - 0,0
11.01.2019 05:00:00 4,2 3,9 - - 0,0
11.01.2019 04:00:00 4,0 3,9 - - 0,0
11.01.2019 03:00:00 3,3 3,2 - - 0,0
11.01.2019 02:00:00 3,1 2,9 - - 0,0
11.01.2019 01:00:00 2,9 2,7 - - 0,0
11.01.2019 00:00:00 2,9 2,7 - - 0,0
10.01.2019 23:00:00 3,6 3,3 - - 0,0
10.01.2019 22:00:00 3,9 3,8 - - 0,0
10.01.2019 21:00:00 3,2 3,1 - - 0,0
10.01.2019 20:00:00 2,5 2,3 - - 0,0
10.01.2019 19:00:00 2,8 2,4 - - 0,0
10.01.2019 18:00:00 3,9 3,4 - - 0,0
10.01.2019 17:00:00 4,3 3,6 - - 0,0
10.01.2019 16:00:00 5,2 4,3 - - 0,0

tt = Température de l'air
td = dewpoint
tt -20cm = Température de l'air -20cm
tt -100cm = Température de l'air -100cm
rr = Quantités de précipitations

stations d'obs. à proximité